Temp
18 18 15 14 12 11 10 9 9 9 8 7 7 8 10 10 11 11 10 10 10 10 10 10 9 10 9 10 9 9 9 9 8 8 7 8 8 8 7 7 7 7 6
17 17 18 12 11 12 11 9 9 9 8 8 8 10 10 10 11 10 9 10 10 9 9 9 9 9 9 9 9 8 9 8 8 8 7 6 6 7 7 7 7 6 6
17 17 17 13 12 12 11 11 12 9 8 8 7 7 8 9 9 9 10 9 9 9 9 9 9 9 9 9 8 8 8 8 7 7 7 5 6 6 6 6 6 6 5
17 16 14 12 12 12 11 11 11 10 8 8 8 10 12 10 9 10 10 9 8 8 8 8 9 8 8 9 8 8 7 7 7 6 6 6 6 5 4 4 4 4 4
18 17 15 15 13 11 13 13 13 8 8 7 9 10 10 9 9 9 9 9 8 8 8 8 8 8 8 8 8 7 7 7 6 6 6 6 6 5 4 4 4 4 4
17 17 17 13 13 12 11 10 9 8 8 7 8 9 9 10 8 8 8 9 8 8 8 7 8 7 8 8 7 7 6 6 6 5 5 5 5 4 3 2 3 4 5
18 16 16 14 13 12 12 9 9 8 8 7 7 8 9 9 9 10 9 9 8 8 8 7 7 7 8 7 7 6 6 6 5 5 5 5 4 4 3 2 1 1 4
18 17 16 14 13 12 11 10 9 8 7 7 7 7 8 8 8 9 9 10 9 9 8 8 7 7 7 7 7 6 5 5 5 4 4 4 4 3 2 1 0 0 0
18 18 16 15 13 12 12 11 10 9 8 7 6 6 7 6 7 9 8 9 9 8 8 8 7 7 7 7 6 5 5 5 4 4 4 3 3 2 2 1 0 -2 -4
16 16 15 14 13 12 12 10 10 10 8 6 6 6 6 6 6 7 7 8 8 8 8 8 7 7 7 6 6 5 5 4 4 4 3 3 2 2 1 0 -1 -2 -4
9 10 13 13 13 12 12 11 9 8 7 6 6 5 5 5 5 5 5 7 7 8 8 7 7 7 6 6 5 5 4 4 3 3 2 2 1 1 -0 -1 -1 -2 -4
6 6 7 10 11 11 9 8 8 7 7 6 5 5 4 4 4 4 4 5 6 7 8 7 6 6 6 6 5 4 4 4 3 3 2 1 1 0 -1 -1 -2 -2 -4
1 3 6 7 8 9 9 8 7 6 6 5 5 4 4 4 3 3 3 4 4 6 7 7 6 6 6 6 5 4 4 3 3 2 1 1 0 -0 -1 -2 -2 -3 -4
1 -0 0 4 6 7 7 7 6 6 5 5 4 4 3 3 3 3 2 2 3 5 6 6 6 6 6 5 4 4 3 3 2 1 1 0 -0 -1 -2 -2 -2 -3 -5
-1 -1 -2 -0 1 4 5 5 6 5 5 4 3 3 3 3 2 2 2 2 3 4 6 6 5 5 5 4 4 3 3 2 2 1 0 -0 -1 -1 -2 -2 -2 -4 -5
-3 -3 -3 -3 -1 1 2 4 4 4 4 3 3 3 2 2 2 1 1 1 2 3 4 5 5 5 5 4 3 2 2 1 1 0 -0 -1 -1 -2 -2 -2 -3 -4 -7
-5 -4 -4 -4 -2 -1 1 1 2 2 2 2 2 2 2 1 1 0 0 1 1 2 3 5 5 5 4 3 2 2 1 0 -0 -1 -1 -1 -2 -3 -3 -3 -4 -4 -5
-6 -5 -5 -5 -2 -1 -0 0 1 1 1 1 1 1 1 0 -0 -0 -0 -0 1 2 4 4 4 3 2 2 1 1 0 -1 -1 -1 -1 -2 -3 -4 -4 -4 -4 -3 -4
-7 -6 -6 -5 -3 -2 -0 -0 -0 0 0 0 0 -0 -0 -1 -1 -1 -1 -0 1 1 3 3 3 2 1 1 -0 -0 -1 -2 -2 -2 -2 -3 -3 -4 -4 -4 -5 -4 -4
-7 -7 -7 -6 -3 -3 -2 -1 -0 -1 -1 -1 -0 -1 -1 -2 -2 -2 -1 -0 1 2 2 2 1 0 0 -1 -2 -1 -2 -3 -3 -3 -3 -3 -4 -4 -4 -5 -5 -5 -6
-8 -8 -8 -8 -4 -3 -3 -2 -1 -1 -1 -1 -1 -1 -2 -2 -3 -3 -2 -0 1 1 1 0 -1 -1 -3 -3 -2 -3 -3 -4 -4 -4 -5 -5 -4 -4 -4 -5 -6 -6 -7
-9 -9 -9 -7 -5 -4 -4 -4 -2 -2 -1 -1 -2 -2 -3 -3 -3 -2 -2 -1 0 -0 -1 -2 -3 -5 -5 -4 -4 -4 -4 -4 -4 -5 -5 -5 -5 -5 -5 -5 -6 -6 -6
-10 -10 -9 -7 -5 -4 -4 -5 -4 -2 -2 -3 -3 -4 -4 -4 -3 -3 -2 -2 -1 -1 -3 -5 -6 -6 -5 -6 -6 -5 -4 -4 -4 -5 -5 -5 -5 -5 -6 -6 -6 -6 -7
-10 -10 -10 -9 -7 -6 -5 -5 -5 -4 -3 -4 -4 -4 -4 -5 -5 -4 -3 -2 -3 -3 -4 -6 -7 -6 -6 -7 -6 -5 -5 -5 -5 -5 -6 -6 -6 -6 -6 -6 -7 -7 -7
-10 -10 -10 -9 -8 -7 -7 -6 -6 -6 -6 -5 -5 -6 -6 -6 -6 -6 -4 -4 -4 -4 -5 -6 -6 -6 -8 -7 -6 -5 -5 -6 -6 -6 -6 -6 -6 -6 -7 -7 -8 -8 -8
-11 -10 -10 -9 -9 -8 -8 -7 -7 -7 -7 -6 -7 -7 -7 -7 -7 -7 -7 -5 -5 -6 -6 -6 -6 -8 -8 -7 -6 -6 -6 -7 -7 -7 -7 -7 -7 -8 -9 -9 -8 -8 -9
Height
1406 1414 1417 1421 1426 1433 1439 1443 1448 1455 1462 1464 1467 1470 1476 1484 1487 1492 1499 1503 1509 1513 1517 1521 1526 1528 1531 1532 1533 1536 1537 1537 1538 1536 1535 1534 1532 1530 1530 1530 1529 1528 1527
1403 1410 1411 1413 1417 1421 1425 1432 1439 1449 1452 1456 1460 1466 1474 1478 1482 1488 1494 1498 1505 1509 1514 1517 1522 1524 1527 1528 1531 1533 1535 1536 1536 1535 1534 1533 1531 1529 1529 1528 1527 1526 1525
1390 1395 1400 1402 1409 1412 1415 1419 1426 1436 1442 1448 1456 1463 1470 1473 1477 1482 1486 1493 1499 1503 1509 1514 1517 1520 1523 1525 1529 1530 1532 1533 1534 1534 1533 1531 1530 1527 1526 1526 1525 1523 1521
1381 1388 1390 1395 1398 1403 1410 1415 1420 1425 1434 1440 1445 1451 1454 1460 1468 1473 1480 1486 1492 1499 1504 1510 1512 1516 1519 1521 1526 1527 1529 1530 1532 1531 1530 1528 1527 1526 1526 1522 1519 1517 1515
1373 1378 1379 1381 1387 1397 1401 1404 1411 1419 1426 1429 1435 1441 1449 1458 1463 1467 1474 1481 1487 1493 1499 1504 1508 1511 1513 1517 1522 1525 1526 1527 1529 1528 1527 1525 1523 1523 1523 1519 1519 1515 1512
1364 1369 1374 1378 1382 1388 1395 1399 1404 1409 1415 1420 1427 1433 1441 1446 1453 1459 1464 1472 1480 1485 1491 1498 1503 1507 1508 1513 1518 1521 1523 1524 1525 1526 1525 1523 1520 1519 1518 1516 1513 1510 1507
1356 1362 1368 1368 1372 1377 1384 1390 1396 1400 1404 1411 1419 1425 1430 1436 1441 1449 1457 1462 1469 1476 1484 1489 1496 1500 1502 1509 1513 1517 1519 1520 1522 1522 1520 1519 1517 1517 1515 1514 1511 1507 1502
1349 1354 1359 1361 1362 1368 1375 1380 1385 1392 1397 1403 1409 1417 1423 1428 1433 1442 1450 1455 1463 1469 1477 1483 1491 1495 1498 1504 1509 1513 1515 1516 1517 1518 1517 1515 1514 1513 1512 1511 1508 1503 1501
1343 1347 1352 1355 1358 1361 1363 1367 1374 1382 1387 1392 1399 1407 1413 1418 1424 1434 1441 1449 1457 1464 1470 1478 1486 1489 1494 1499 1504 1508 1510 1511 1513 1514 1513 1512 1510 1509 1508 1506 1505 1503 1499
1341 1344 1345 1349 1352 1354 1358 1365 1369 1373 1380 1387 1394 1399 1404 1414 1420 1426 1431 1439 1449 1456 1463 1471 1479 1484 1488 1493 1498 1503 1505 1507 1508 1509 1509 1508 1507 1506 1504 1503 1501 1499 1497
1345 1344 1345 1344 1346 1350 1352 1356 1363 1369 1375 1380 1387 1393 1399 1407 1414 1418 1426 1432 1440 1448 1456 1464 1471 1476 1480 1487 1493 1497 1500 1503 1504 1505 1504 1503 1503 1502 1500 1499 1497 1495 1493
1347 1343 1341 1342 1344 1348 1349 1352 1357 1363 1368 1372 1380 1387 1393 1402 1407 1412 1419 1425 1430 1439 1448 1457 1464 1469 1475 1481 1487 1492 1495 1498 1499 1500 1500 1500 1499 1498 1496 1494 1493 1491 1489
1349 1346 1345 1342 1344 1346 1347 1350 1354 1360 1366 1369 1376 1382 1388 1394 1398 1407 1413 1418 1423 1431 1440 1449 1456 1462 1468 1475 1481 1486 1490 1493 1494 1495 1495 1495 1494 1493 1491 1490 1489 1486 1483
1353 1350 1346 1346 1346 1346 1348 1350 1353 1357 1362 1365 1371 1375 1381 1388 1394 1401 1409 1414 1419 1426 1434 1442 1450 1456 1463 1469 1475 1480 1485 1487 1489 1490 1490 1490 1489 1489 1487 1486 1484 1481 1478
1356 1355 1352 1348 1347 1348 1348 1349 1352 1355 1358 1361 1366 1371 1379 1383 1389 1397 1404 1409 1415 1421 1429 1436 1443 1450 1457 1463 1469 1475 1479 1482 1484 1485 1486 1486 1485 1484 1482 1481 1480 1476 1473
1359 1356 1356 1352 1348 1347 1348 1349 1350 1352 1353 1356 1362 1369 1373 1378 1384 1392 1399 1405 1410 1416 1423 1430 1437 1444 1452 1459 1465 1471 1474 1477 1479 1480 1481 1481 1480 1478 1478 1476 1474 1472 1468
1360 1357 1355 1352 1349 1347 1347 1347 1347 1349 1352 1355 1359 1363 1367 1373 1380 1387 1393 1398 1404 1409 1416 1424 1433 1441 1449 1456 1462 1466 1470 1472 1475 1476 1477 1476 1475 1474 1473 1472 1469 1466 1463
1360 1356 1353 1347 1345 1344 1344 1345 1345 1347 1350 1353 1355 1359 1364 1370 1375 1382 1388 1393 1398 1405 1412 1420 1428 1436 1444 1451 1457 1462 1465 1468 1470 1472 1472 1471 1471 1470 1468 1466 1464 1461 1458
1364 1358 1352 1346 1343 1341 1341 1342 1342 1344 1347 1349 1353 1357 1362 1366 1371 1376 1381 1387 1394 1400 1408 1416 1424 1432 1440 1446 1453 1458 1462 1465 1466 1467 1468 1468 1467 1466 1464 1461 1457 1454 1451
1363 1357 1354 1348 1344 1340 1339 1340 1340 1341 1343 1346 1350 1355 1360 1364 1368 1372 1375 1383 1391 1398 1406 1413 1423 1431 1437 1443 1450 1455 1459 1461 1463 1464 1464 1463 1463 1462 1460 1456 1452 1448 1445
1359 1356 1352 1347 1342 1339 1338 1338 1339 1338 1340 1343 1348 1352 1357 1362 1366 1370 1374 1379 1386 1396 1404 1413 1420 1427 1434 1441 1447 1452 1455 1458 1459 1460 1460 1460 1459 1458 1456 1452 1449 1445 1440
1349 1344 1341 1337 1334 1334 1333 1333 1333 1335 1338 1341 1345 1350 1354 1358 1363 1367 1373 1379 1386 1394 1402 1409 1416 1424 1431 1439 1444 1449 1452 1454 1455 1457 1457 1457 1456 1455 1452 1450 1446 1442 1436
1353 1347 1339 1331 1329 1328 1328 1330 1332 1333 1336 1339 1344 1348 1351 1356 1360 1365 1371 1378 1386 1393 1399 1405 1413 1421 1429 1435 1441 1446 1448 1450 1452 1455 1455 1453 1452 1451 1449 1448 1444 1437 1430
1354 1346 1340 1336 1332 1329 1329 1331 1333 1333 1334 1338 1342 1344 1349 1353 1359 1365 1372 1378 1384 1390 1396 1403 1412 1420 1428 1433 1439 1441 1443 1447 1449 1452 1451 1449 1448 1448 1448 1445 1439 1433 1426
1352 1347 1343 1338 1333 1331 1330 1331 1333 1335 1337 1335 1338 1342 1348 1351 1358 1366 1372 1378 1385 1391 1396 1405 1414 1420 1426 1432 1436 1438 1441 1445 1447 1447 1446 1445 1446 1445 1444 1441 1436 1430 1423
1351 1347 1342 1338 1334 1330 1331 1332 1333 1335 1336 1332 1336 1341 1346 1352 1360 1366 1374 1384 1390 1396 1403 1410 1415 1422 1429 1432 1435 1437 1440 1442 1444 1443 1444 1443 1444 1442 1441 1434 1430 1427 1421
Wind_Speed
44 46 42 39 37 40 41 45 49 47 47 45 46 48 45 40 38 37 37 36 34 31 28 25 21 16 13 10 8 7 6 6 6 5 7 7 5 6 7 8 16 14 14
26 30 42 40 45 43 47 49 51 51 52 52 52 49 45 43 41 39 39 37 36 33 31 27 23 18 15 12 10 8 8 7 7 5 4 3 8 3 7 14 10 14 16
34 44 49 44 46 49 53 53 51 56 56 55 50 47 44 42 44 44 43 41 39 37 33 29 25 21 18 14 12 10 9 9 8 6 4 3 2 9 10 12 12 16 17
35 34 36 40 47 52 51 51 51 54 57 58 56 54 53 55 53 49 46 43 41 38 35 31 28 24 20 16 14 12 11 10 10 9 8 7 8 3 5 13 17 18 23
36 36 38 46 46 47 51 52 51 53 58 59 59 57 57 56 52 51 48 45 43 40 38 35 31 27 23 19 17 14 12 11 12 11 9 8 8 9 8 13 12 22 24
36 36 38 39 41 44 47 50 52 55 57 58 59 60 61 58 57 55 52 49 47 44 41 38 34 30 25 21 18 16 14 13 13 12 11 10 9 10 9 14 19 24 25
33 36 33 39 43 46 48 51 52 53 57 57 61 62 61 61 61 58 56 54 51 49 46 42 38 34 27 23 21 18 16 14 14 13 12 12 12 12 13 16 18 22 32
25 30 36 39 44 47 50 53 55 53 56 58 60 61 61 61 60 58 57 55 54 51 48 43 40 34 29 25 23 20 18 16 15 15 14 13 14 13 14 14 17 22 22
21 27 29 38 42 44 50 55 54 55 56 57 58 60 61 58 59 60 57 55 54 52 48 44 41 35 30 27 25 22 20 17 16 16 15 14 15 14 15 15 17 17 15
16 15 21 29 36 40 42 47 50 53 53 54 55 57 59 57 55 58 59 56 54 51 49 45 41 36 33 30 27 24 21 19 17 17 16 15 15 15 15 16 17 18 20
10 7 16 22 30 35 37 41 47 47 48 52 52 52 53 53 51 53 56 55 53 51 49 46 42 38 34 31 28 25 22 19 19 18 17 16 16 16 16 17 18 20 21
17 13 9 8 17 25 29 36 41 44 47 49 48 49 47 48 49 50 53 54 53 51 48 46 43 39 34 32 29 25 23 20 20 19 18 16 16 16 16 16 18 20 22
23 22 15 8 4 12 18 24 30 36 38 41 44 44 44 46 48 47 49 51 52 50 48 45 45 40 36 33 29 26 24 21 20 19 18 16 16 16 16 17 19 21 24
22 24 24 16 9 2 10 16 22 28 32 37 41 42 43 44 46 45 45 48 51 47 47 46 44 40 37 34 30 26 24 21 20 19 18 16 16 16 16 18 20 23 24
26 24 25 22 14 7 4 10 17 24 29 32 35 36 39 41 42 42 45 48 47 45 45 46 44 40 37 33 29 26 24 21 20 18 17 16 16 16 16 19 21 23 25
27 27 24 21 15 10 4 8 15 21 26 29 32 35 37 40 42 43 46 45 44 45 47 47 44 41 37 32 28 24 22 20 19 18 16 15 16 15 16 19 21 22 23
30 28 26 24 23 11 8 9 13 20 23 27 32 36 39 41 41 44 44 44 44 47 49 47 43 38 34 30 27 25 22 20 18 17 15 14 15 16 17 18 20 22 22
32 32 28 30 24 12 7 10 13 18 25 28 32 36 36 39 43 43 42 43 45 47 47 45 41 36 32 29 26 23 21 18 17 16 14 14 14 15 17 19 21 23 24
30 30 29 30 23 12 10 11 14 17 24 28 31 33 37 40 41 41 42 43 46 48 46 42 39 35 32 28 24 22 20 17 16 15 13 12 13 14 17 19 22 24 26
29 29 26 26 19 12 11 12 15 19 24 27 29 30 33 36 39 40 42 43 45 45 43 41 36 31 27 24 21 20 18 16 14 12 11 11 11 13 16 18 21 25 27
29 26 23 21 19 13 10 14 17 20 20 22 25 27 30 33 36 39 41 44 45 44 42 38 33 29 25 22 21 19 16 13 11 10 9 9 11 13 15 17 20 23 27
33 28 27 24 18 12 9 13 16 17 18 20 23 26 29 32 35 38 40 41 44 44 41 37 33 27 24 22 19 16 14 12 10 9 9 8 10 12 14 17 19 22 26
30 25 24 24 19 13 9 13 17 18 19 20 24 28 31 34 35 37 41 44 44 43 40 35 32 29 25 22 17 15 13 10 8 7 6 7 9 12 14 16 19 23 26
27 25 21 18 16 12 10 12 18 18 20 25 28 30 31 33 34 36 41 45 45 43 38 35 32 27 23 18 17 14 9 8 6 5 4 7 10 12 15 17 20 24 27
25 21 18 15 12 9 8 11 15 20 27 26 27 29 30 33 36 39 42 44 38 36 34 29 27 26 22 19 14 11 9 7 4 2 4 7 10 13 16 20 24 27 29
21 19 16 12 10 7 5 7 13 20 24 25 27 30 32 34 37 39 36 28 26 24 24 25 24 20 17 16 13 11 9 6 2 2 5 8 11 14 17 21 26 29 31
Wind_Direction
221 224 240 231 219 209 206 210 208 202 200 198 201 207 207 204 205 206 206 205 204 203 203 207 206 205 211 215 217 235 251 264 277 280 307 303 297 286 293 283 314 315 318
210 220 224 217 207 215 215 213 210 201 206 207 211 213 208 207 209 207 208 207 208 207 208 210 208 211 214 218 223 235 252 266 273 272 263 240 307 302 299 302 302 308 312
210 219 224 217 211 213 210 218 217 212 210 212 211 209 209 208 207 208 210 208 208 208 211 210 213 214 216 222 226 234 249 261 267 266 245 248 224 293 297 305 310 308 314
215 217 216 209 207 213 214 222 221 217 212 213 212 215 215 211 212 211 211 208 209 208 210 213 214 216 218 222 228 235 244 255 265 264 259 257 268 291 300 313 318 318 325
221 220 216 228 221 209 221 226 225 216 212 213 218 218 217 217 215 212 211 211 211 209 212 214 215 216 218 223 229 237 244 252 261 268 272 275 284 286 281 294 296 303 317
214 219 220 218 223 215 218 216 218 218 216 215 218 219 218 216 215 214 211 211 211 210 211 213 216 218 218 223 229 236 243 251 260 267 275 281 286 292 293 295 303 312 320
214 220 215 215 220 217 216 212 215 211 219 215 215 218 220 219 220 219 216 213 212 212 213 212 215 217 218 222 230 236 244 252 260 267 272 277 281 285 290 294 302 310 316
214 219 217 211 216 218 216 214 214 212 214 214 216 218 218 218 220 223 221 219 219 216 214 214 215 217 218 222 229 234 242 250 258 264 270 277 283 289 293 295 302 309 310
227 221 217 212 217 220 220 217 215 215 216 213 213 213 215 213 215 222 223 222 220 218 217 216 216 215 218 223 228 234 243 250 257 263 269 275 282 288 293 298 300 300 303
239 239 220 214 217 223 224 217 219 217 212 212 210 211 213 211 212 220 220 220 220 221 219 216 215 215 217 221 226 232 241 248 256 263 267 274 280 286 292 296 299 299 294
1 308 253 241 225 222 227 224 216 210 207 211 210 208 209 206 206 213 218 221 220 220 220 216 214 215 215 220 225 232 239 245 254 259 265 272 277 284 289 295 297 298 297
7 359 315 245 222 213 209 210 211 207 207 211 207 206 206 199 202 208 213 218 220 219 219 215 214 214 214 220 224 231 239 245 251 259 263 269 275 282 287 293 297 298 300
10 13 13 12 239 212 208 207 206 205 203 205 203 202 201 196 200 204 206 213 217 217 215 213 213 212 214 219 222 229 237 245 250 255 261 268 274 281 287 293 296 298 297
13 8 9 12 4 259 211 205 205 203 199 200 200 199 199 196 199 201 201 205 216 216 212 211 210 211 214 217 221 228 236 243 248 253 259 265 273 279 285 291 297 301 304
6 5 358 360 2 349 234 206 201 199 199 197 194 194 194 195 194 195 199 208 215 215 212 208 206 208 212 216 221 226 233 240 247 251 257 263 271 281 287 293 301 300 301
351 352 349 348 355 345 291 208 200 195 195 196 196 194 191 192 194 196 202 206 212 210 206 204 205 207 210 213 218 225 233 238 244 249 255 264 276 283 291 298 301 302 304
343 342 340 334 336 324 287 228 204 199 195 195 194 196 197 195 194 200 201 206 207 205 203 202 204 206 207 212 219 226 231 233 239 246 253 265 276 287 295 300 302 306 309
336 334 331 328 335 318 265 243 217 205 195 200 202 204 202 198 198 202 203 205 206 204 201 200 201 201 204 211 217 224 227 228 236 246 254 265 276 288 295 300 306 310 311
327 326 324 323 328 330 297 248 221 213 203 203 203 202 202 202 201 203 204 205 203 199 197 196 195 197 200 207 213 219 221 225 235 245 256 268 279 287 297 305 312 315 317
323 323 320 318 315 313 294 257 232 213 207 208 209 209 206 206 204 203 202 201 200 196 191 190 193 195 200 204 210 214 217 223 235 250 263 272 280 291 307 313 316 316 320
322 321 317 316 313 303 285 248 229 220 217 215 214 209 205 205 203 200 200 196 193 189 186 186 185 193 197 198 203 205 214 222 237 251 260 273 291 305 311 317 319 318 318
328 328 324 323 320 306 282 252 235 224 221 216 210 207 202 200 201 202 196 193 187 183 181 182 184 183 187 192 193 204 212 226 240 249 262 282 303 312 321 322 320 322 328
326 325 324 325 320 305 284 269 252 228 218 207 200 197 196 198 199 198 192 185 183 181 177 182 179 174 176 186 192 204 216 226 237 252 275 300 313 321 324 324 331 338 339
326 328 329 326 318 305 275 254 250 228 213 201 197 195 196 192 192 192 188 183 180 181 181 176 176 179 183 177 184 194 200 214 223 242 285 316 321 324 331 338 342 344 345
330 334 328 326 327 314 276 248 235 213 204 194 192 190 188 187 184 184 182 182 185 186 178 175 179 178 171 176 187 192 190 196 203 253 308 321 327 336 341 347 350 351 350
339 340 337 335 338 338 296 243 217 211 205 187 184 184 183 179 178 173 170 179 173 169 174 177 174 162 172 185 184 172 170 174 196 313 334 347 346 346 344 352 354 354 351